Tracking 28915 objects as of 29-May-2024
HD Live streaming from Space Station
objects crossing your sky now

STARLINK-3080

Track STARLINK-3080 now!
10-day predictions
STARLINK-3080 is classified as:


NORAD ID: 49161
Int'l Code: 2021-082AH
Perigee: 577.2 km
Apogee: 581.2 km
Inclination: 70.0 °
Period: 96.1 minutes
Semi major axis: 6950 km
RCS: Unknown
Launch date: September 14, 2021
Source: United States (US)
Launch site: AIR FORCE WESTERN TEST RANGE (AFWTR)
Your satellite tracking list
Your tracking list is empty




NASA's NSSDC Master Catalog

Two Line Element Set (TLE):
1 49161U 21082AH  24150.17284482  .00000046  00000-0  11619-4 0  9994
2 49161  69.9991 132.0994 0002851 272.8282  87.2551 14.98325764149765
Source of the keplerian elements: AFSPC